STARLINK-5855 (55917 NORAD) Tracking and Keplerian Element Data

This shows tracking and keplerian element data for the satellite.

Feedback or suggestion? Click here.




ElementValue
Catalog55917
NameSTARLINK-5855
Epoch Orbit840
Epoch Day127.25001157
Epoch Year2023
RAAN41.2965
Inclination70.0016
Eccentricity0.0003123
Argument of Perigee269.7569
Mean Anonmoly8.1889
Mean Motion15.2922211
Decay Rate-0.00924478
L11 55917U 23037D 23127.25001157 -.00924478 00000+0 -35516-1 0 9994
L22 55917 70.0016 41.2965 0003123 269.7569 8.1889 15.29222110 8404



Live tracking and technical data element details for STARLINK-5855 (NORAD 55917). STARLINK-5855 can be tracked NOW for your location showing map with azimuth and elevation plus other details from your city location.







IsCatalogInMostPopularTable: catalog: 55917, numindb: 8
Update: records affected: 1



GetName: 55917 STARLINK-5855

Hit Count: updated at: Tue, 06 Jun 2023 02:32:40 GMT